Litchfield, MN

4:52 AM CST on February 27, 2017 (GMT -0600)
Litchfield Municipal

Weather History for KLJF - April, 2013

Change the Weather History Date:

Wednesday, April 17, 2013

  Actual Average Record
Temperature  
Mean Temperature 36 °F -  
Max Temperature 39 °F 61 °F 86 °F (1985)
Min Temperature 33 °F 35 °F 16 °F (1953)
Degree Days  
Heating Degree Days 29    
Moisture  
Dew Point 31 °F    
Average Humidity 83    
Maximum Humidity 100    
Minimum Humidity 70    
Precipitation  
Precipitation 0.00 in - - ()
Sea Level Pressure  
Sea Level Pressure 30.16 in    
Wind  
Wind Speed 6 mph (NE)    
Max Wind Speed 16 mph    
Max Gust Speed 21 mph    
Visibility 9 miles    
Events Rain , Snow    
Averages and records for this station are not official NWS values.
T = Trace of Precipitation, MM = Missing Value Source: NWS Daily Summary

Daily Weather History Graph

Daily Weather History Graph

Search for Another Location

Airport or City:

Trip Planner

Search our weather history database for the weather conditions in past years. The results will help you decide how hot, cold, wet, or windy it might be!

Date:

Astronomy

Apr. 17, 2013 Rise Set
Actual Time 6:29 AM CDT 8:06 PM CDT
Civil Twilight 5:58 AM CDT 8:37 PM CDT
Nautical Twilight 5:20 AM CDT 9:15 PM CDT
Astronomical Twilight 4:40 AM CDT 9:56 PM CDT
Moon 11:38 AM CDT (4/17) 1:50 AM CDT (4/17)
Length of Visible Light 14h 39m
Length of Day
13h 37m
Waxing Crescent, 42% of the Moon is Illuminated
Apr 17
Waxing Crescent
Apr 18
First Quarter
Apr 25
Full
May 2
Last Quarter
May 9
New

Hourly Weather History & Observations

Time (CDT) Temp. Windchill Dew Point Humidity Pressure Visibility Wind Dir Wind Speed Gust Speed Precip Events Conditions
12:13 AM 33.8 °F 30.8 °F 28.4 °F 81% 30.31 in 10.0 mi North 3.5 mph - N/A   Scattered Clouds
12:32 AM 33.8 °F 30.8 °F 28.4 °F 81% 30.31 in 10.0 mi North 3.5 mph - N/A   Scattered Clouds
12:53 AM 33.8 °F - 28.4 °F 81% 30.31 in 10.0 mi Calm Calm - N/A   Mostly Cloudy
1:13 AM 33.8 °F - 28.4 °F 81% 30.31 in 10.0 mi Calm Calm - N/A   Overcast
1:32 AM 33.8 °F - 28.4 °F 81% 30.31 in 10.0 mi Calm Calm - N/A   Overcast
1:53 AM 33.8 °F - 28.4 °F 81% 30.31 in 10.0 mi Calm Calm - N/A   Overcast
2:13 AM 33.8 °F - 28.4 °F 81% 30.31 in 10.0 mi Calm Calm - N/A   Unknown
2:33 AM 33.8 °F - 28.4 °F 81% 30.31 in 10.0 mi Calm Calm - N/A   Overcast
2:53 AM 33.8 °F - 28.4 °F 81% 30.32 in 10.0 mi Calm Calm - N/A   Overcast
3:13 AM 35.6 °F - 28.4 °F 75% 30.32 in 10.0 mi Calm Calm - N/A   Overcast
3:33 AM 35.6 °F - 28.4 °F 75% 30.32 in 10.0 mi Calm Calm - N/A   Unknown
3:53 AM 33.8 °F 29.6 °F 30.2 °F 87% 30.30 in 10.0 mi NNE 4.6 mph - N/A   Overcast
4:12 AM 35.6 °F 30.7 °F 28.4 °F 75% 30.28 in 10.0 mi NE 5.8 mph - N/A   Overcast
4:33 AM 35.6 °F 31.7 °F 28.4 °F 75% 30.28 in 10.0 mi NE 4.6 mph - N/A   Overcast
4:52 AM 35.6 °F 31.7 °F 28.4 °F 75% 30.27 in 10.0 mi NNE 4.6 mph - N/A   Overcast
5:13 AM 35.6 °F 31.7 °F 28.4 °F 75% 30.26 in 10.0 mi NNE 4.6 mph - N/A   Overcast
5:33 AM 35.6 °F 29.9 °F 28.4 °F 75% 30.24 in 10.0 mi NNE 6.9 mph - N/A   Overcast
5:52 AM 35.6 °F 29.9 °F 28.4 °F 75% 30.23 in 10.0 mi NNE 6.9 mph - N/A   Overcast
6:13 AM 35.6 °F 29.9 °F 28.4 °F 75% 30.24 in 10.0 mi NNE 6.9 mph - N/A   Overcast
6:33 AM 35.6 °F 31.7 °F 28.4 °F 75% 30.25 in 10.0 mi ENE 4.6 mph - N/A   Overcast
6:52 AM 35.6 °F 30.7 °F 28.4 °F 75% 30.25 in 10.0 mi ENE 5.8 mph - N/A   Overcast
7:13 AM 35.6 °F - 28.4 °F 75% 30.28 in 10.0 mi Calm Calm - N/A   Overcast
7:33 AM 35.6 °F 32.8 °F 30.2 °F 81% 30.26 in 10.0 mi NNE 3.5 mph - N/A   Overcast
7:52 AM 35.6 °F 31.7 °F 30.2 °F 81% 30.26 in 10.0 mi NNE 4.6 mph - N/A   Overcast
8:13 AM 35.6 °F 30.7 °F 28.4 °F 75% 30.27 in 10.0 mi NE 5.8 mph - N/A   Overcast
8:32 AM 35.6 °F 32.8 °F 30.2 °F 81% 30.27 in 10.0 mi NE 3.5 mph - N/A   Overcast
9:12 AM 35.6 °F 29.9 °F 30.2 °F 81% 30.27 in 10.0 mi NE 6.9 mph - N/A   Scattered Clouds
9:33 AM 35.6 °F 30.7 °F 30.2 °F 81% 30.25 in 10.0 mi NE 5.8 mph - N/A   Mostly Cloudy
9:53 AM 35.6 °F 29.9 °F 30.2 °F 81% 30.23 in 10.0 mi NE 6.9 mph - N/A   Overcast
10:13 AM 35.6 °F 29.9 °F 30.2 °F 81% 30.22 in 10.0 mi NE 6.9 mph - N/A   Overcast
10:33 AM 37.4 °F 31.4 °F 30.2 °F 75% 30.22 in 10.0 mi ENE 8.1 mph - N/A   Overcast
10:52 AM 37.4 °F 31.4 °F 30.2 °F 75% 30.22 in 10.0 mi ENE 8.1 mph - N/A   Overcast
11:13 AM 37.4 °F 32.1 °F 30.2 °F 75% 30.21 in 10.0 mi ENE 6.9 mph - N/A   Overcast
11:33 AM 37.4 °F 30.8 °F 30.2 °F 75% 30.21 in 10.0 mi ENE 9.2 mph - N/A   Overcast
11:52 AM 37.4 °F 30.3 °F 30.2 °F 75% 30.19 in 10.0 mi ENE 10.4 mph - N/A   Overcast
12:13 PM 37.4 °F 30.3 °F 30.2 °F 75% 30.18 in 10.0 mi ENE 10.4 mph - N/A   Overcast
12:33 PM 37.4 °F 30.3 °F 30.2 °F 75% 30.16 in 10.0 mi ENE 10.4 mph - N/A   Overcast
12:52 PM 37.4 °F 30.8 °F 30.2 °F 75% 30.16 in 10.0 mi ENE 9.2 mph 16.1 mph N/A   Overcast
1:13 PM 37.4 °F 30.8 °F 30.2 °F 75% 30.16 in 10.0 mi ENE 9.2 mph - N/A   Overcast
1:33 PM 37.4 °F 30.8 °F 30.2 °F 75% 30.15 in 10.0 mi ENE 9.2 mph - N/A   Overcast
1:53 PM 37.4 °F 30.3 °F 32.0 °F 81% 30.12 in 10.0 mi NE 10.4 mph - N/A   Overcast
2:13 PM 39.2 °F 32.5 °F 32.0 °F 75% 30.11 in 10.0 mi NE 10.4 mph - N/A   Overcast
2:33 PM 39.2 °F 32.0 °F 30.2 °F 70% 30.12 in 10.0 mi NE 11.5 mph - N/A   Overcast
2:53 PM 39.2 °F 32.5 °F 32.0 °F 75% 30.11 in 10.0 mi NE 10.4 mph - N/A   Overcast
3:32 PM 39.2 °F 32.5 °F 32.0 °F 75% 30.08 in 10.0 mi NE 10.4 mph - N/A   Overcast
3:53 PM 39.2 °F 32.0 °F 32.0 °F 75% 30.07 in 10.0 mi NE 11.5 mph - N/A   Overcast
4:13 PM 39.2 °F 31.6 °F 30.2 °F 70% 30.06 in 10.0 mi NE 12.7 mph - N/A   Overcast
4:32 PM 39.2 °F 32.0 °F 32.0 °F 75% 30.05 in 10.0 mi NNE 11.5 mph 17.3 mph N/A   Overcast
4:53 PM 39.2 °F 31.6 °F 32.0 °F 75% 30.05 in 10.0 mi NE 12.7 mph - N/A   Overcast
5:13 PM 39.2 °F 30.8 °F 32.0 °F 75% 30.06 in 10.0 mi ENE 15.0 mph 19.6 mph N/A   Overcast
5:32 PM 37.4 °F 28.9 °F 35.6 °F 93% 30.04 in 5.0 mi ENE 13.8 mph - N/A   Light Drizzle
5:53 PM 35.6 °F 27.5 °F 35.6 °F 100% 30.04 in 7.0 mi NE 11.5 mph 18.4 mph N/A Rain Light Rain
6:13 PM 35.6 °F 28.6 °F 35.6 °F 100% 30.04 in 5.0 mi NE 9.2 mph - N/A   Drizzle
6:32 PM 35.6 °F 28.6 °F 35.6 °F 100% 30.03 in 4.0 mi NE 9.2 mph - N/A   Light Drizzle
6:53 PM 35.6 °F 27.5 °F 35.6 °F 100% 30.02 in 7.0 mi NNE 11.5 mph - N/A   Light Drizzle
7:13 PM 35.6 °F 27.5 °F 35.6 °F 100% 30.01 in 4.0 mi NNE 11.5 mph 16.1 mph N/A   Light Drizzle
7:32 PM 35.6 °F 28.0 °F 35.6 °F 100% 30.01 in 7.0 mi NNE 10.4 mph 18.4 mph N/A   Light Drizzle
7:53 PM 35.6 °F 29.2 °F 35.6 °F 100% 30.01 in 7.0 mi NNE 8.1 mph - N/A Rain Light Rain
8:13 PM 33.8 °F 27.0 °F 33.8 °F 100% 30.01 in 4.0 mi NNE 8.1 mph - N/A   Overcast
8:32 PM 33.8 °F 25.3 °F 33.8 °F 100% 30.01 in 5.0 mi NNE 11.5 mph - N/A   Overcast
8:53 PM 33.8 °F 27.7 °F 33.8 °F 100% 30.03 in 4.0 mi NNE 6.9 mph - N/A   Overcast
9:12 PM 33.8 °F 26.4 °F 33.8 °F 100% 30.05 in 5.0 mi NNE 9.2 mph - N/A   Overcast
9:53 PM 33.8 °F 24.3 °F 33.8 °F 100% 29.98 in 2.5 mi NNE 13.8 mph 20.7 mph N/A Snow Light Snow
10:12 PM 33.8 °F 25.3 °F 33.8 °F 100% 29.99 in 4.0 mi NNE 11.5 mph - N/A Snow Light Snow
10:33 PM 33.8 °F 23.5 °F 33.8 °F 100% 29.98 in 5.0 mi North 16.1 mph 20.7 mph N/A Snow Light Snow
10:53 PM 33.8 °F 24.8 °F 33.8 °F 100% 29.99 in 7.0 mi North 12.7 mph - N/A   Overcast
11:12 PM 33.8 °F 24.8 °F 33.8 °F 100% 29.99 in 7.0 mi North 12.7 mph 18.4 mph N/A   Overcast
11:33 PM 33.8 °F 25.3 °F 33.8 °F 100% 29.99 in 7.0 mi North 11.5 mph 16.1 mph N/A   Overcast
11:52 PM 33.8 °F 26.4 °F 33.8 °F 100% 29.99 in 5.0 mi North 9.2 mph - N/A   Overcast